Location: Newark
(43.0000°N, 1.6781°W)
Time: 07:08:26
(UTC+00:00)

Vanguard 1 - Pass Details

Date: 09 December 2021
Orbit: 652 x 3830 km, 34.2° (Epoch: 16 January)

Event Time Altitude Azimuth Distance (km) Brightness Sun altitude
Rises 21:46:58 0° 225° (SW) 6,136 14.3 -56.1°
Reaches altitude 10° 21:50:37 10° 220° (SW) 5,483 13.9 -56.7°
Enters shadow 21:55:17 24° 210° (SSW) 4,798 13.4 -57.4°
